Location: Seattle
(47.6064°N, 122.3308°W)
Time: 22:21:10
(UTC-07:00)

ITUPSAT 1 - Pass Details

Date: 07 April 2023
Orbit: 697 x 710 km, 98.5° (Epoch: 29 May)

Event Time Altitude Azimuth Distance (km) Brightness Sun altitude
Rises 23:49:24 0° 2° (N) 3,119 ? -32.3°
Reaches altitude 10° 23:52:13 10° 345° (NNW) 2,193 ? -32.5°
Maximum altitude 23:55:33 19° 301° (WNW) 1,651 ? -32.8°
Enters shadow 23:57:09 16° 276° (W) 1,785 ? -32.9°
